Time,TemperatureF,DewpointF,PressureIn,WindDirection,WindDirectionDegrees,WindSpeedMPH,WindSpeedGustMPH,Humidity,HourlyPrecipIn,Conditions,Clouds,dailyrainin,SoftwareType,DateUTC
2013-01-08 00:04:00,21.0,17.0,30.42,NW,313,0.0,0.0,83,0.00,,,0.01,,2013-01-08 05:04:00,
2013-01-08 00:12:00,21.0,17.0,30.42,NW,313,0.0,0.0,83,0.00,,,0.01,,2013-01-08 05:12:00,
2013-01-08 00:22:00,21.0,17.0,30.42,NW,313,0.0,0.0,83,0.00,,,0.01,,2013-01-08 05:22:00,
2013-01-08 00:33:00,21.0,17.0,30.42,NW,313,0.0,0.0,83,0.00,,,0.01,,2013-01-08 05:33:00,
2013-01-08 00:43:00,21.0,17.0,30.42,NW,313,0.0,0.0,83,0.00,,,0.01,,2013-01-08 05:43:00,
2013-01-08 00:53:00,21.0,17.0,30.42,NW,313,0.0,0.0,84,0.00,,,0.01,,2013-01-08 05:53:00,
2013-01-08 01:03:00,21.0,17.0,30.42,NW,313,0.0,0.0,84,0.00,,,0.01,,2013-01-08 06:03:00,
2013-01-08 01:12:00,21.0,17.0,30.42,NW,313,0.0,0.0,84,0.00,,,0.01,,2013-01-08 06:12:00,
2013-01-08 01:22:00,22.0,18.0,30.42,NW,313,0.0,0.0,84,0.00,,,0.01,,2013-01-08 06:22:00,
2013-01-08 01:33:00,21.0,17.0,30.42,NW,313,0.0,0.0,84,0.00,,,0.01,,2013-01-08 06:33:00,
2013-01-08 01:42:00,21.0,17.0,30.42,NW,313,0.0,0.0,84,0.00,,,0.01,,2013-01-08 06:42:00,
2013-01-08 01:52:00,21.0,17.0,30.42,NW,313,0.0,0.0,84,0.00,,,0.01,,2013-01-08 06:52:00,
2013-01-08 02:02:00,20.0,16.0,30.42,NW,313,0.0,0.0,85,0.00,,,0.01,,2013-01-08 07:02:00,
2013-01-08 02:12:00,20.0,16.0,30.42,NW,313,0.0,0.0,85,0.00,,,0.01,,2013-01-08 07:12:00,
2013-01-08 02:22:00,19.0,15.0,30.42,NW,313,0.0,1.0,85,0.00,,,0.01,,2013-01-08 07:22:00,
2013-01-08 02:32:00,19.0,16.0,30.42,NW,313,0.0,1.0,88,0.00,,,0.01,,2013-01-08 07:32:00,
2013-01-08 02:42:00,19.0,16.0,30.42,NW,313,0.0,1.0,88,0.00,,,0.01,,2013-01-08 07:42:00,
2013-01-08 02:52:00,19.0,16.0,30.42,NW,313,0.0,1.0,88,0.00,,,0.01,,2013-01-08 07:52:00,
2013-01-08 03:02:00,21.0,17.0,30.41,NW,313,0.0,1.0,86,0.00,,,0.01,,2013-01-08 08:02:00,
2013-01-08 03:12:00,21.0,17.0,30.41,NW,313,0.0,1.0,86,0.00,,,0.01,,2013-01-08 08:12:00,
2013-01-08 03:22:00,21.0,17.0,30.41,ENE,57,0.0,2.0,86,0.00,,,0.01,,2013-01-08 08:22:00,
2013-01-08 03:32:00,21.0,17.0,30.40,ENE,57,0.0,0.0,86,0.00,,,0.01,,2013-01-08 08:32:00,
2013-01-08 03:42:00,21.0,17.0,30.40,ENE,57,0.0,0.0,86,0.00,,,0.01,,2013-01-08 08:42:00,
2013-01-08 03:52:00,21.0,18.0,30.40,ENE,57,0.0,0.0,87,0.00,,,0.01,,2013-01-08 08:52:00,
2013-01-08 04:02:00,22.0,19.0,30.40,ENE,57,0.0,0.0,88,0.00,,,0.01,,2013-01-08 09:02:00,
2013-01-08 04:12:00,22.0,19.0,30.40,ENE,57,0.0,0.0,88,0.00,,,0.01,,2013-01-08 09:12:00,
2013-01-08 04:22:00,22.0,19.0,30.39,ENE,57,0.0,1.0,88,0.00,,,0.01,,2013-01-08 09:22:00,
2013-01-08 04:33:00,22.0,19.0,30.39,ENE,57,0.0,0.0,89,0.00,,,0.01,,2013-01-08 09:33:00,
2013-01-08 04:42:00,22.0,19.0,30.39,ENE,57,0.0,0.0,89,0.00,,,0.01,,2013-01-08 09:42:00,
2013-01-08 04:52:00,23.0,21.0,30.40,ENE,57,0.0,0.0,91,0.00,,,0.01,,2013-01-08 09:52:00,
2013-01-08 05:02:00,23.0,21.0,30.40,ENE,57,0.0,0.0,90,0.00,,,0.01,,2013-01-08 10:02:00,
2013-01-08 05:12:00,23.0,21.0,30.40,ENE,57,0.0,0.0,90,0.00,,,0.01,,2013-01-08 10:12:00,
2013-01-08 05:22:00,23.0,21.0,30.40,ENE,57,0.0,0.0,91,0.00,,,0.01,,2013-01-08 10:22:00,
2013-01-08 05:33:00,23.0,21.0,30.40,ENE,57,0.0,0.0,90,0.00,,,0.01,,2013-01-08 10:33:00,
2013-01-08 05:42:00,23.0,21.0,30.40,ENE,57,0.0,0.0,90,0.00,,,0.01,,2013-01-08 10:42:00,
2013-01-08 05:52:00,23.0,21.0,30.39,ESE,110,0.0,2.0,91,0.00,,,0.01,,2013-01-08 10:52:00,
2013-01-08 06:02:00,23.0,21.0,30.40,ESE,110,0.0,0.0,92,0.00,,,0.01,,2013-01-08 11:02:00,
2013-01-08 06:12:00,23.0,21.0,30.40,ESE,110,0.0,0.0,92,0.00,,,0.01,,2013-01-08 11:12:00,
2013-01-08 06:22:00,23.0,21.0,30.40,ESE,110,0.0,1.0,93,0.00,,,0.01,,2013-01-08 11:22:00,
2013-01-08 06:33:00,23.0,21.0,30.40,ESE,110,0.0,1.0,93,0.00,,,0.01,,2013-01-08 11:33:00,
2013-01-08 06:42:00,23.0,21.0,30.40,ESE,110,0.0,1.0,93,0.00,,,0.01,,2013-01-08 11:42:00,
2013-01-08 06:53:00,23.0,21.0,30.40,ESE,110,0.0,1.0,93,0.00,,,0.01,,2013-01-08 11:53:00,
2013-01-08 07:03:00,24.0,22.0,30.40,WNW,303,0.0,2.0,92,0.00,,,0.01,,2013-01-08 12:03:00,
2013-01-08 07:12:00,24.0,22.0,30.40,WNW,303,0.0,2.0,92,0.00,,,0.01,,2013-01-08 12:12:00,
2013-01-08 07:22:00,23.0,21.0,30.41,North,355,0.0,2.0,93,0.00,,,0.01,,2013-01-08 12:22:00,
2013-01-08 07:33:00,24.0,22.0,30.42,NW,322,0.0,1.0,93,0.00,,,0.01,,2013-01-08 12:33:00,
2013-01-08 07:43:00,24.0,22.0,30.42,NW,322,0.0,1.0,93,0.00,,,0.01,,2013-01-08 12:43:00,
2013-01-08 07:53:00,23.0,21.0,30.42,NW,322,0.0,1.0,93,0.00,,,0.01,,2013-01-08 12:53:00,
2013-01-08 08:03:00,24.0,22.0,30.43,NW,322,0.0,2.0,93,0.00,,,0.01,,2013-01-08 13:03:00,
2013-01-08 08:12:00,24.0,22.0,30.43,NW,322,0.0,2.0,93,0.00,,,0.01,,2013-01-08 13:12:00,
2013-01-08 08:22:00,24.0,22.0,30.43,West,267,0.0,2.0,93,0.00,,,0.01,,2013-01-08 13:22:00,
2013-01-08 08:33:00,25.0,23.0,30.44,WNW,292,1.0,4.0,92,0.00,,,0.01,,2013-01-08 13:33:00,
2013-01-08 08:43:00,25.0,23.0,30.44,WNW,292,1.0,4.0,92,0.00,,,0.01,,2013-01-08 13:43:00,
2013-01-08 08:52:00,26.0,23.0,30.44,WNW,302,1.0,4.0,90,0.00,,,0.01,,2013-01-08 13:52:00,
2013-01-08 09:03:00,27.0,24.0,30.44,NW,309,0.0,3.0,89,0.00,,,0.01,,2013-01-08 14:03:00,
2013-01-08 09:13:00,27.0,24.0,30.44,NW,309,0.0,3.0,89,0.00,,,0.01,,2013-01-08 14:13:00,
2013-01-08 09:23:00,28.0,25.0,30.44,NNW,331,1.0,5.0,88,0.00,,,0.01,,2013-01-08 14:23:00,
2013-01-08 09:33:00,29.0,25.0,30.43,WSW,253,3.0,7.0,86,0.00,,,0.01,,2013-01-08 14:33:00,
2013-01-08 09:43:00,29.0,25.0,30.43,WSW,253,3.0,7.0,86,0.00,,,0.01,,2013-01-08 14:43:00,
2013-01-08 09:53:00,31.0,26.0,30.44,WNW,297,1.0,3.0,83,0.00,,,0.01,,2013-01-08 14:53:00,
2013-01-08 10:03:00,33.0,28.0,30.44,NW,311,2.0,6.0,80,0.00,,,0.01,,2013-01-08 15:03:00,
2013-01-08 10:12:00,33.0,28.0,30.44,NW,311,2.0,6.0,80,0.00,,,0.01,,2013-01-08 15:12:00,
2013-01-08 10:23:00,35.0,28.0,30.43,NNW,344,2.0,7.0,75,0.00,,,0.01,,2013-01-08 15:23:00,
2013-01-08 10:33:00,36.0,28.0,30.43,NW,322,2.0,7.0,72,0.00,,,0.01,,2013-01-08 15:33:00,
2013-01-08 10:43:00,36.0,28.0,30.43,NW,322,2.0,7.0,72,0.00,,,0.01,,2013-01-08 15:43:00,
2013-01-08 10:53:00,38.0,29.0,30.43,NNW,327,3.0,8.0,69,0.00,,,0.01,,2013-01-08 15:53:00,
2013-01-08 11:03:00,38.0,28.0,30.42,NNW,342,4.0,8.0,67,0.00,,,0.01,,2013-01-08 16:03:00,
2013-01-08 11:13:00,38.0,28.0,30.42,NNW,342,4.0,8.0,67,0.00,,,0.01,,2013-01-08 16:13:00,
2013-01-08 11:23:00,39.0,29.0,30.41,North,350,2.0,6.0,67,0.00,,,0.01,,2013-01-08 16:23:00,
2013-01-08 11:34:00,39.0,29.0,30.40,WNW,283,1.0,7.0,66,0.00,,,0.01,,2013-01-08 16:34:00,
2013-01-08 11:43:00,39.0,29.0,30.40,WNW,283,1.0,7.0,66,0.00,,,0.01,,2013-01-08 16:43:00,
2013-01-08 11:52:00,40.0,29.0,30.40,NW,313,4.0,11.0,64,0.00,,,0.01,,2013-01-08 16:52:00,
2013-01-08 12:03:00,40.0,29.0,30.40,NW,313,4.0,11.0,64,0.00,,,0.01,,2013-01-08 17:03:00,
2013-01-08 12:13:00,40.0,29.0,30.40,NW,313,4.0,11.0,64,0.00,,,0.01,,2013-01-08 17:13:00,
2013-01-08 12:23:00,40.0,29.0,30.39,North,360,3.0,8.0,64,0.00,,,0.01,,2013-01-08 17:23:00,
2013-01-08 12:34:00,41.0,29.0,30.38,NNE,17,3.0,6.0,63,0.00,,,0.01,,2013-01-08 17:34:00,
2013-01-08 12:43:00,41.0,29.0,30.38,NNE,17,3.0,6.0,63,0.00,,,0.01,,2013-01-08 17:43:00,
2013-01-08 12:53:00,41.0,29.0,30.37,NW,325,1.0,9.0,63,0.00,,,0.01,,2013-01-08 17:53:00,
2013-01-08 13:04:00,41.0,29.0,30.37,NNW,335,2.0,8.0,62,0.00,,,0.01,,2013-01-08 18:04:00,
2013-01-08 13:13:00,41.0,29.0,30.37,NNW,335,2.0,8.0,62,0.00,,,0.01,,2013-01-08 18:13:00,
2013-01-08 13:23:00,42.0,30.0,30.36,NW,315,3.0,8.0,61,0.01,,,0.02,,2013-01-08 18:23:00,
2013-01-08 13:33:00,42.0,29.0,30.36,North,350,3.0,7.0,59,0.01,,,0.02,,2013-01-08 18:33:00,
2013-01-08 13:43:00,42.0,29.0,30.36,North,350,3.0,7.0,59,0.01,,,0.02,,2013-01-08 18:43:00,
2013-01-08 13:53:00,43.0,29.0,30.36,NW,312,1.0,7.0,58,0.01,,,0.01,,2013-01-08 18:53:00,
2013-01-08 14:03:00,43.0,29.0,30.36,NW,305,1.0,7.0,58,0.01,,,0.01,,2013-01-08 19:03:00,
2013-01-08 14:12:00,43.0,29.0,30.36,NW,305,1.0,7.0,58,0.01,,,0.01,,2013-01-08 19:12:00,
2013-01-08 14:23:00,43.0,29.0,30.36,NW,310,1.0,8.0,58,0.00,,,0.01,,2013-01-08 19:23:00,
2013-01-08 14:33:00,43.0,30.0,30.37,WNW,290,2.0,5.0,59,0.00,,,0.01,,2013-01-08 19:33:00,
2013-01-08 14:43:00,43.0,30.0,30.37,WNW,290,2.0,5.0,59,0.00,,,0.01,,2013-01-08 19:43:00,
2013-01-08 14:53:00,43.0,30.0,30.37,West,271,0.0,6.0,61,0.00,,,0.01,,2013-01-08 19:53:00,
2013-01-08 15:03:00,42.0,29.0,30.37,NW,313,2.0,5.0,60,0.00,,,0.01,,2013-01-08 20:03:00,
2013-01-08 15:12:00,42.0,29.0,30.37,NW,313,2.0,5.0,60,0.00,,,0.01,,2013-01-08 20:12:00,
2013-01-08 15:23:00,42.0,30.0,30.36,WNW,302,0.0,3.0,62,0.00,,,0.01,,2013-01-08 20:23:00,
2013-01-08 15:33:00,42.0,30.0,30.37,NW,308,0.0,6.0,63,0.00,,,0.01,,2013-01-08 20:33:00,
2013-01-08 15:43:00,42.0,30.0,30.37,NW,308,0.0,6.0,63,0.00,,,0.01,,2013-01-08 20:43:00,
2013-01-08 15:53:00,42.0,30.0,30.37,NNW,331,0.0,3.0,62,0.00,,,0.01,,2013-01-08 20:53:00,
2013-01-08 16:03:00,42.0,30.0,30.37,NW,322,0.0,3.0,63,0.00,,,0.01,,2013-01-08 21:03:00,
2013-01-08 16:13:00,42.0,30.0,30.37,NW,322,0.0,3.0,63,0.00,,,0.01,,2013-01-08 21:13:00,
2013-01-08 16:23:00,41.0,30.0,30.37,West,278,0.0,1.0,65,0.00,,,0.01,,2013-01-08 21:23:00,
2013-01-08 16:33:00,40.0,30.0,30.37,NNW,329,0.0,1.0,66,0.00,,,0.01,,2013-01-08 21:33:00,
2013-01-08 16:43:00,40.0,30.0,30.37,NNW,329,0.0,1.0,66,0.00,,,0.01,,2013-01-08 21:43:00,
2013-01-08 16:53:00,40.0,30.0,30.37,NNW,329,0.0,1.0,67,0.00,,,0.01,,2013-01-08 21:53:00,
2013-01-08 17:03:00,39.0,30.0,30.37,NNW,329,0.0,1.0,70,0.00,,,0.01,,2013-01-08 22:03:00,
2013-01-08 17:12:00,39.0,30.0,30.37,NNW,329,0.0,1.0,70,0.00,,,0.01,,2013-01-08 22:12:00,
2013-01-08 17:23:00,38.0,29.0,30.37,NNW,329,0.0,1.0,70,0.00,,,0.01,,2013-01-08 22:23:00,
2013-01-08 17:33:00,38.0,29.0,30.39,NNW,329,0.0,0.0,70,0.00,,,0.01,,2013-01-08 22:33:00,
2013-01-08 17:43:00,38.0,29.0,30.39,NNW,329,0.0,0.0,70,0.00,,,0.01,,2013-01-08 22:43:00,
2013-01-08 17:52:00,37.0,28.0,30.39,NNW,329,0.0,0.0,71,0.00,,,0.01,,2013-01-08 22:52:00,
2013-01-08 18:03:00,37.0,29.0,30.39,NNW,329,0.0,0.0,74,0.01,,,0.02,,2013-01-08 23:03:00,
2013-01-08 18:13:00,37.0,29.0,30.39,NNW,329,0.0,0.0,74,0.01,,,0.02,,2013-01-08 23:13:00,
2013-01-08 18:22:00,36.0,29.0,30.39,NNW,329,0.0,1.0,75,0.01,,,0.02,,2013-01-08 23:22:00,
2013-01-08 18:33:00,36.0,29.0,30.39,NNW,329,0.0,0.0,76,0.01,,,0.02,,2013-01-08 23:33:00,
2013-01-08 18:43:00,36.0,29.0,30.39,NNW,329,0.0,0.0,76,0.01,,,0.02,,2013-01-08 23:43:00,
2013-01-08 18:52:00,35.0,29.0,30.40,West,271,0.0,2.0,77,0.01,,,0.02,,2013-01-08 23:52:00,
2013-01-08 19:03:00,35.0,29.0,30.40,West,271,0.0,0.0,77,0.00,,,0.02,,2013-01-09 00:03:00,
2013-01-08 19:13:00,35.0,29.0,30.40,West,271,0.0,0.0,77,0.00,,,0.02,,2013-01-09 00:13:00,
2013-01-08 19:22:00,35.0,29.0,30.40,West,271,0.0,0.0,79,0.00,,,0.02,,2013-01-09 00:22:00,
2013-01-08 19:33:00,35.0,29.0,30.40,West,271,0.0,0.0,80,0.00,,,0.02,,2013-01-09 00:33:00,
2013-01-08 19:43:00,35.0,29.0,30.40,West,271,0.0,0.0,80,0.00,,,0.02,,2013-01-09 00:43:00,
2013-01-08 19:52:00,35.0,29.0,30.41,West,271,0.0,0.0,80,0.00,,,0.02,,2013-01-09 00:52:00,
2013-01-08 20:02:00,34.0,29.0,30.41,West,271,0.0,1.0,81,0.00,,,0.02,,2013-01-09 01:02:00,
2013-01-08 20:12:00,34.0,29.0,30.41,West,271,0.0,1.0,81,0.00,,,0.02,,2013-01-09 01:12:00,
2013-01-08 20:22:00,34.0,29.0,30.42,West,271,0.0,0.0,82,0.00,,,0.02,,2013-01-09 01:22:00,
2013-01-08 20:33:00,34.0,29.0,30.42,West,271,0.0,0.0,82,0.00,,,0.02,,2013-01-09 01:33:00,
2013-01-08 20:42:00,34.0,29.0,30.42,West,271,0.0,0.0,82,0.00,,,0.02,,2013-01-09 01:42:00,
2013-01-08 20:52:00,34.0,29.0,30.42,West,271,0.0,0.0,82,0.00,,,0.02,,2013-01-09 01:52:00,
2013-01-08 21:02:00,34.0,29.0,30.42,West,271,0.0,0.0,83,0.00,,,0.02,,2013-01-09 02:02:00,
2013-01-08 21:12:00,34.0,29.0,30.42,West,271,0.0,0.0,83,0.00,,,0.02,,2013-01-09 02:12:00,
2013-01-08 21:22:00,34.0,29.0,30.42,West,271,0.0,0.0,83,0.00,,,0.02,,2013-01-09 02:22:00,
2013-01-08 21:33:00,33.0,29.0,30.42,West,271,0.0,0.0,84,0.00,,,0.02,,2013-01-09 02:33:00,
2013-01-08 21:43:00,33.0,29.0,30.42,West,271,0.0,0.0,84,0.00,,,0.02,,2013-01-09 02:43:00,
2013-01-08 21:52:00,33.0,29.0,30.42,West,271,0.0,0.0,85,0.00,,,0.02,,2013-01-09 02:52:00,
2013-01-08 22:03:00,32.0,28.0,30.42,West,271,0.0,0.0,86,0.00,,,0.02,,2013-01-09 03:03:00,
2013-01-08 22:12:00,32.0,28.0,30.42,West,271,0.0,0.0,86,0.00,,,0.02,,2013-01-09 03:12:00,
2013-01-08 22:22:00,32.0,28.0,30.43,West,271,0.0,0.0,86,0.00,,,0.02,,2013-01-09 03:22:00,
2013-01-08 22:33:00,32.0,28.0,30.43,West,271,0.0,0.0,86,0.00,,,0.02,,2013-01-09 03:33:00,
2013-01-08 22:43:00,32.0,28.0,30.43,West,271,0.0,0.0,86,0.00,,,0.02,,2013-01-09 03:43:00,
2013-01-08 22:52:00,32.0,29.0,30.42,West,271,0.0,0.0,88,0.00,,,0.02,,2013-01-09 03:52:00,
2013-01-08 23:02:00,31.0,28.0,30.42,West,271,0.0,0.0,88,0.00,,,0.02,,2013-01-09 04:02:00,
2013-01-08 23:12:00,31.0,28.0,30.42,West,271,0.0,0.0,88,0.00,,,0.02,,2013-01-09 04:12:00,
2013-01-08 23:22:00,31.0,28.0,30.42,West,271,0.0,0.0,89,0.00,,,0.02,,2013-01-09 04:22:00,
2013-01-08 23:33:00,31.0,28.0,30.42,West,271,0.0,0.0,89,0.00,,,0.02,,2013-01-09 04:33:00,
2013-01-08 23:42:00,31.0,28.0,30.42,West,271,0.0,0.0,89,0.00,,,0.02,,2013-01-09 04:42:00,
2013-01-08 23:52:00,31.0,28.0,30.42,West,271,0.0,0.0,89,0.00,,,0.02,,2013-01-09 04:52:00,